Newburgh, NY

10:32 AM EST on February 23, 2018 (GMT -0500)
Stewart International

Weather History for KSWF - January, 2014

Change the Weather History Date:

Thursday, January 2, 2014

  Actual Average Record
Temperature  
Mean Temperature 14 °F -  
Max Temperature 21 °F 35 °F 57 °F (1979)
Min Temperature 6 °F 21 °F -5 °F (2001)
Degree Days  
Heating Degree Days 50    
Moisture  
Dew Point 12 °F    
Average Humidity 90    
Maximum Humidity 93    
Minimum Humidity 85    
Precipitation  
Precipitation 0.00 in - - ()
Sea Level Pressure  
Sea Level Pressure 30.02 in    
Wind  
Wind Speed 10 mph (ENE)    
Max Wind Speed 13 mph    
Max Gust Speed 22 mph    
Visibility 3 miles    
Events Snow    
Averages and records for this station are not official NWS values.
T = Trace of Precipitation, MM = Missing Value Source: NWS Daily Summary

Daily Weather History Graph

Daily Weather History Graph

Search for Another Location

Airport or City:

Trip Planner

Search our weather history database for the weather conditions in past years. The results will help you decide how hot, cold, wet, or windy it might be!

Date:

Astronomy

Jan. 02, 2014 Rise Set
Actual Time 7:22 AM EST 4:38 PM EST
Civil Twilight 6:51 AM EST 5:09 PM EST
Nautical Twilight 6:16 AM EST 5:44 PM EST
Astronomical Twilight 5:43 AM EST 6:17 PM EST
Moon 8:00 AM EST (1/2) 6:33 PM EST (1/2)
Length of Visible Light 10h 17m
Length of Day
9h 15m
New Moon, 2% of the Moon is Illuminated
Jan 2
New Moon
Jan 7
First Quarter
Jan 15
Full
Jan 24
Last Quarter
Jan 30
New

Hourly Weather History & Observations

Time (EST) Temp. Windchill Dew Point Humidity Pressure Visibility Wind Dir Wind Speed Gust Speed Precip Events Conditions
12:45 AM 21.2 °F 11.7 °F 19.4 °F 93% 30.26 in 10.0 mi ENE 8.1 mph - N/A   Overcast
2:45 AM 21.2 °F 11.7 °F 19.4 °F 93% 30.23 in 10.0 mi ENE 8.1 mph - N/A   Overcast
3:45 AM 21.2 °F 11.7 °F 17.6 °F 86% 30.21 in 10.0 mi ENE 8.1 mph - N/A   Overcast
4:45 AM 19.4 °F 10.4 °F 17.6 °F 93% 30.19 in 10.0 mi NE 6.9 mph - N/A   Overcast
5:45 AM 19.4 °F 6.6 °F 17.6 °F 93% 30.19 in 7.0 mi NE 12.7 mph - N/A Snow Light Snow
6:00 AM 19.4 °F 6.6 °F 17.6 °F 93% 30.18 in 2.0 mi NE 12.7 mph - N/A Snow Light Snow
6:45 AM 19.4 °F 6.6 °F 17.6 °F 93% 30.16 in 2.0 mi NE 12.7 mph - N/A Snow Light Snow
8:45 AM 15.8 °F 8.6 °F 14.0 °F 93% 30.15 in - NE 4.6 mph - N/A   Overcast
9:45 AM 15.8 °F 2.7 °F 12.2 °F 86% 30.14 in 2.0 mi NNE 11.5 mph - N/A Snow Light Snow
11:45 AM 15.8 °F 2.7 °F 12.2 °F 86% 30.04 in 2.0 mi ENE 11.5 mph - N/A Snow Snow
12:25 PM 14.0 °F 0.5 °F 10.4 °F 86% 30.02 in 1.0 mi ENE 11.5 mph - N/A Snow Snow
12:45 PM 14.0 °F 0.5 °F 10.4 °F 86% 30.01 in 1.0 mi ENE 11.5 mph - N/A Snow Light Snow
1:45 PM 12.2 °F -1.8 °F 10.4 °F 92% 29.97 in 1.5 mi ENE 11.5 mph - N/A Snow Light Snow
2:45 PM 12.2 °F -1.8 °F 8.6 °F 85% 29.93 in - ENE 11.5 mph - N/A Snow Light Snow
3:45 PM 12.2 °F -1.8 °F 10.4 °F 92% 29.92 in 0.8 mi ENE 11.5 mph - N/A Snow Light Snow
4:45 PM 12.2 °F 1.7 °F 10.4 °F 92% 29.90 in 0.5 mi NE 6.9 mph - N/A Snow Light Snow
5:45 PM 10.4 °F - 6.8 °F 85% 29.87 in 0.5 mi North - - N/A Snow Light Snow
6:45 PM 8.6 °F -6.3 °F 6.8 °F 92% 29.86 in 0.5 mi ENE 11.5 mph - N/A Snow Light Snow
7:45 PM 8.6 °F -6.3 °F 6.8 °F 92% 29.83 in 0.5 mi East 11.5 mph - N/A Snow Light Snow
8:45 PM 8.6 °F -4.7 °F 6.8 °F 92% 29.81 in 1.8 mi ENE 9.2 mph - N/A Snow Light Snow
9:45 PM 8.6 °F -4.7 °F 5.0 °F 85% 29.79 in 1.8 mi NNE 9.2 mph - N/A Snow Light Snow
11:45 PM 6.8 °F -7.8 °F 5.0 °F 92% 29.75 in 1.0 mi NNE 10.4 mph 21.9 mph N/A Snow Light Snow